Location: Poughquag
(41.6090°N, 73.6820°W)
Time: 09:14:27
(UTC-04:00)

ISS - Pass Details

Date: 23 May 2019
Orbit: 411 x 421 km, 51.6° (Epoch: 14 October)

Event Time Altitude Azimuth Distance (km) Brightness Sun altitude
Rises 22:02:00 0° 287° (WNW) 2,356 1.1 -16.4°
Reaches altitude 10° 22:04:40 10° 310° (NW) 1,497 0.3 -16.7°
Maximum altitude 22:06:52 16° 351° (N) 1,176 -0.7 -17.0°
Drops below altitude 10° 22:09:06 10° 32° (NNE) 1,502 -0.7 -17.2°
Sets 22:11:47 0° 55° (NE) 2,370 0.0 -17.6°
